ELECTRON KICK STAGE R/B (46824 NORAD) Tracking and Keplerian Element Data

This shows tracking and keplerian element data for the satellite.

Feedback or suggestion? Click here.




ElementValue
Catalog46824
NameELECTRON KICK STAGE R/B
Epoch Orbit423
Epoch Day330.89311998
Epoch Year2020
RAAN28.1468
Inclination96.641
Eccentricity0.0012413
Argument of Perigee211.7183
Mean Anonmoly148.3338
Mean Motion15.16675238
Decay Rate2.074E-05
L11 46824U 20077M 20330.89311998 .00002074 00000-0 10857-3 0 9993
L22 46824 96.6410 28.1468 0012413 211.7183 148.3338 15.16675238 4238

Live tracking and technical data element details for ELECTRON KICK STAGE R/B (NORAD 46824). ELECTRON KICK STAGE R/B can be tracked NOW for your location showing map with azimuth and elevation plus other details from your city location.

Track the satellite on the map from your city or location and see movement details for azimuth, elevation, latitude, longitude, range, height, and movement on the map or in text.







IsCatalogInMostPopularTable: catalog: 46824, numindb: 14
Update: records affected: 1



GetName: 46824 ELECTRON KICK STAGE R/B

Hit Count: updated at: Thu, 26 Nov 2020 18:10:25 GMT